Voltar ao catálogo

CZ-6A DEB

AtivoSSO
NORAD 54547·DEBRIS·🇨🇳 China

Lançado Nov 11, 2022 de Taiyuan Satellite Launch Center

Loading…

Próximas Passagens (próximas 24 horas)

TLE

AtualizadoSource: Space-Track

Época: Sep 14, 2026, 12:16 UTC

1 54547U 22151KX  26257.51175386  .00004030  00000-0  15451-2 0  9999
2 54547  98.8067 270.0983 0090658  84.7445 276.4074 14.28837991198374

Acompanhe CZ-6A DEB em tempo real com AllMySat

Download on the App Store